Weather History for KGUP - November, 2011

Change the Weather History Date:

Friday, November 4, 2011

  Actual Average Record
Temperature  
Mean Temperature 47 °F -  
Max Temperature 66 °F 55 °F 71 °F (1975)
Min Temperature 28 °F 23 °F 9 °F (1991)
Degree Days  
Heating Degree Days 18    
Moisture  
Dew Point 17 °F    
Average Humidity 35    
Maximum Humidity 63    
Minimum Humidity 13    
Precipitation  
Precipitation 0.00 in - - ()
Sea Level Pressure  
Sea Level Pressure 29.76 in    
Wind  
Wind Speed 8 mph (South)    
Max Wind Speed 22 mph    
Max Gust Speed 32 mph    
Visibility 10 miles    
Events      
Averages and records for this station are not official NWS values.
T = Trace of Precipitation, MM = Missing Value Source: NWS Daily Summary

Daily Weather History Graph

Daily Weather History Graph

Search for Another Location

Airport or City:

Trip Planner

Search our weather history database for the weather conditions in past years. The results will help you decide how hot, cold, wet, or windy it might be!

Date:

Astronomy

Nov. 04, 2011 Rise Set
Actual Time 7:39 AM MDT 6:17 PM MDT
Civil Twilight 7:13 AM MDT 6:43 PM MDT
Nautical Twilight 6:42 AM MDT 7:14 PM MDT
Astronomical Twilight 6:13 AM MDT 7:43 PM MDT
Moon 3:00 PM MDT 2:06 AM MDT
Length of Visible Light 11h 30m
Length of Day
10h 37m
Waxing Gibbous, 70% of the Moon is Illuminated
Nov 4
Waxing Gibbous
Nov 10
Full
Nov 18
Last Quarter
Nov 24
New
Dec 2
First Quarter

Hourly Weather History & Observations

Time (MDT) Temp. Windchill Dew Point Humidity Pressure Visibility Wind Dir Wind Speed Gust Speed Precip Events Conditions
12:53 AM 32.0 °F 25.6 °F 14.0 °F 48% 30.00 in 10.0 mi NE 6.9 mph - N/A   Clear
1:53 AM 33.8 °F 27.0 °F 15.8 °F 48% 30.10 in 10.0 mi ENE 8.1 mph - N/A   Clear
2:53 AM 35.1 °F 30.1 °F 16.0 °F 46% 29.89 in 10.0 mi NE 5.8 mph - N/A   Clear
3:53 AM 30.9 °F - 17.1 °F 57% 29.89 in 10.0 mi Calm Calm - N/A   Clear
4:53 AM 28.0 °F - 17.1 °F 63% 29.90 in 10.0 mi Calm Calm - N/A   Clear
5:53 AM 28.9 °F - 17.1 °F 61% 29.90 in 10.0 mi Calm Calm - N/A   Clear
6:53 AM 28.9 °F - 17.1 °F 61% 29.96 in 10.0 mi Calm Calm - N/A   Clear
7:53 AM 30.0 °F - 18.0 °F 61% 30.01 in 10.0 mi Calm Calm - N/A   Clear
8:53 AM 34.0 °F - 19.9 °F 56% 30.02 in 10.0 mi Calm Calm - N/A   Scattered Clouds
9:53 AM 48.0 °F - 21.0 °F 34% 29.90 in 10.0 mi Variable 5.8 mph - N/A   Clear
10:53 AM 55.0 °F - 19.9 °F 25% 29.81 in 10.0 mi South 16.1 mph 21.9 mph N/A   Clear
11:53 AM 59.0 °F - 19.9 °F 22% 29.76 in 10.0 mi South 13.8 mph 21.9 mph N/A   Clear
12:53 PM 64.0 °F - 19.0 °F 18% 29.71 in 10.0 mi SSE 18.4 mph 26.5 mph N/A   Clear
1:53 PM 66.0 °F - 18.0 °F 16% 29.63 in 10.0 mi SW 20.7 mph 31.1 mph N/A   Clear
2:53 PM 66.0 °F - 14.0 °F 13% 29.58 in 10.0 mi SW 19.6 mph 32.2 mph N/A   Clear
3:53 PM 64.0 °F - 12.9 °F 14% 29.60 in 10.0 mi SW 13.8 mph 28.8 mph N/A   Clear
4:53 PM 61.0 °F - 12.9 °F 15% 29.63 in 10.0 mi SW 21.9 mph 32.2 mph N/A   Clear
5:53 PM 59.0 °F - 12.2 °F 16% 29.78 in 10.0 mi SW 11.5 mph - N/A   Clear
6:53 PM 57.0 °F - 14.0 °F 18% 29.65 in 10.0 mi SSW 11.5 mph - N/A   Clear
7:53 PM 55.9 °F - 16.0 °F 21% 29.65 in 10.0 mi South 10.4 mph - N/A   Clear
8:53 PM 53.1 °F - 19.9 °F 27% 29.61 in 10.0 mi South 12.7 mph - N/A   Clear
9:53 PM 52.0 °F - 23.0 °F 32% 29.51 in 10.0 mi SSE 11.5 mph 19.6 mph N/A   Clear
10:53 PM 51.1 °F - 21.9 °F 32% 29.45 in 10.0 mi South 11.5 mph - N/A   Clear
11:53 PM 48.0 °F - 21.0 °F 34% 29.40 in 10.0 mi SSE 5.8 mph - N/A   Clear